Location: Croisilles
(50.1998°N, 2.8793°E)
Time: 13:35:13
(UTC+00:00)

USA 229 DEB - Pass Details

Date: 21 January 2021
Orbit: 965 x 1247 km, 63.4° (Epoch: 26 February)

Event Time Altitude Azimuth Distance (km) Brightness Sun altitude
Rises 18:54:01 0° 316° (NW) 3,919 7.2 -23.6°
Reaches altitude 10° 18:56:38 10° 317° (NW) 2,999 6.5 -24.0°
Maximum altitude 19:03:52 81° 46° (NE) 1,195 3.8 -25.2°
Enters shadow 19:06:38 43° 126° (SE) 1,611 4.2 -25.6°
